Regional Weather Roundup
Issued by NWS

Home | Current Version | Previous Version | Graphics & Text | Print | Product List | Glossary On
Versions: 1 2 3 4 5 6 7 8 9 10 11 12 13 14 15 16 17 18 19 20 21 22 23 24 25 26 27 28 29 30 31 32 33 34 35 36 37 38 39 40 41 42 43 44 45 46 47 48 49 50
000
ASUS43 KMKX 260100
RWRWI

WISCONSIN REGIONAL WEATHER ROUNDUP
NATIONAL WEATHER SERVICE MILWAUKEE/SULLIVAN WI
800 PM CDT SAT APR 25 2015

NOTE: "FAIR" INDICATES FEW OR NO CLOUDS BELOW 12,000 FEET WITH NO
SIGNIFICANT WEATHER AND/OR OBSTRUCTIONS TO VISIBILITY.

WIZ001-002-006>008-014>016-023>028-260200-
NORTHWEST WISCONSIN

CITY           SKY/WX    TMP DP  RH WIND       PRES   REMARKS
SUPERIOR ARPT  CLEAR     37  27  66 NE12G17   30.02S WCI  29
ASHLAND        CLEAR     35  25  66 NE8       30.03R WCI  29
HAYWARD        CLEAR     43  20  39 NE13      29.96R
SIREN          CLEAR     51  25  36 NE10      29.93R
CUMBERLAND     CLEAR     50  27  40 NE12      29.90R
RICE LAKE      CLEAR     52  27  37 N14G22    29.91R
CHETEK         CLEAR     55  30  38 N7        29.89R
LADYSMITH      CLEAR     51  26  37 N10       29.92R
EAU CLAIRE     NOT AVBL
MENOMONIE      CLEAR     56  23  27 NE5       29.88R
NEW RICHMOND   CLEAR     57  23  26 NE6       29.88R
OSCEOLA        CLEAR     58  26  29 N6        29.91R
$$

WIZ003>005-009-010-017-018-260200-
NORTH CENTRAL WISCONSIN

CITY           SKY/WX    TMP DP  RH WIND       PRES   REMARKS
MANITOWISH WTR CLEAR     46  21  37 N8G16     29.93R
ARBOR VITAE    CLEAR     52  19  27 NE9       29.91R
WOODRUFF       CLEAR     52  19  27 NE9       29.91R
RHINELANDER    CLEAR     49  13  23 NE8       29.91R
EAGLE RIVER    CLEAR     48  17  29 NE13      29.91R
LAND O LAKES   CLEAR     46  19  34 N10       29.94R
PHILLIPS       CLEAR     48  25  40 N7G16     29.90R
TOMAHAWK       CLEAR     52  15  23 CALM      29.89R
MEDFORD        CLEAR     52  21  29 NE6       29.87R
MERRILL        CLEAR     53  15  22 E6        29.88R
$$

WIZ029-030-035-036-043>047-260200-
CENTRAL WISCONSIN

CITY           SKY/WX    TMP DP  RH WIND       PRES   REMARKS
WAUSAU         CLEAR     49  17  28 SE10      29.88R
MOSINEE        CLEAR     46  18  31 E7        29.90R
MARSHFIELD     CLEAR     52  21  29 E3        29.88R
STEVENS POINT  PTCLDY    46  18  33 E6        29.89R
WAUPACA        PTCLDY    47   9  20 NE3       29.91R
WAUTOMA        NOT AVBL
WISC RAPIDS    PTCLDY    48  14  25 E8        29.91R
CAMP DOUGLAS   NOT AVBL
$$

WIZ011>013-019>022-031-037>040-048>050-260200-
NORTHEAST WISCONSIN

CITY           SKY/WX    TMP DP  RH WIND       PRES   REMARKS
ANTIGO         CLEAR     46  22  38 E8        29.89R
SHAWANO        CLEAR     45  17  33 E6        29.92R
OCONTO         CLEAR     45  21  38 E5        29.91S
STURGEON BAY   PTCLDY    45  16  31 NE9       29.93S
GREEN BAY      PTCLDY    44  18  35 NE10      29.91R
MANITOWOC      NOT AVBL
APPLETON       PTCLDY    45   7  21 NE8       29.90R
CLINTONVILLE   PTCLDY    45  14  29 E8        29.90R
OSHKOSH        PTCLDY    45  19  35 NE12      29.89R
$$

WIZ032>034-041-042-053>061-260200-
SOUTHWEST WISCONSIN

CITY           SKY/WX    TMP DP  RH WIND       PRES   REMARKS
LA CROSSE      PTCLDY    55  18  23 E7        29.87R
SPARTA         PTCLDY    52  11  19 E7        29.88R
VIROQUA        PTCLDY    49  23  36 NE8       29.86R
BOSCOBEL       CLOUDY    51  28  41 CALM      29.87R
PRAIRIE DU CHI CLOUDY    51  28  41 E7        29.86R
PLATTEVILLE    CLOUDY    47  35  61 NE8       29.85R
$$

WIZ056-057-062-063-064-067-068-260200-
SOUTH CENTRAL WISCONSIN

CITY           SKY/WX    TMP DP  RH WIND       PRES   REMARKS
REEDSBURG      PTCLDY    49  22  34 NE5       29.87R
BARABOO/DELLS  MOCLDY    48  19  31 NE10      29.87R
LONE ROCK      NOT AVBL
MINERAL POINT  CLOUDY    46  32  57 E6        29.85R
MADISON        MOCLDY    47  28  47 E6        29.86R
MIDDLETON      CLOUDY    49  27  41 E3        29.86R
WATERTOWN      CLOUDY    46  26  45 CALM      29.86R
MONROE         CLOUDY    45  36  70 NE9       29.84R
JANESVILLE     CLOUDY    46  30  53 E10       29.85R
$$

WIZ051-052-058>065-066-070>072-260200-
SOUTHEAST WISCONSIN

CITY           SKY/WX    TMP DP  RH WIND       PRES   REMARKS
MILWAUKEE      MOCLDY    40  24  53 NE14G23   29.87R WCI  32
WAUKESHA       MOCLDY    43  21  42 NE10      29.87R
MILWAUKEE/TIMM NOT AVBL
RACINE         CLOUDY    39  27  62 N15       29.88R WCI  31
BURLINGTON     CLOUDY    41  24  51 NE7       29.86R
KENOSHA        CLOUDY    40  28  62 N9        29.86R WCI  34
FOND DU LAC    PTCLDY    45  26  47 N12       29.88R
SHEBOYGAN      PTCLDY    42  20  41 N13       29.88R
WEST BEND      CLOUDY    43  19  39 NE9       29.86R
JUNEAU         CLOUDY    46  10  22 N10       29.87R
$$

LSZ147-162-260200-
LAKE SUPERIOR

STATION/POSITION TIME  TEMP    WIND        PRES    WAVE
                       AIR SEA DIR/SP/G            HT/PER
                 (UTC) (F)     (DEG/KT/KT) (MB)    (FT/S)
W MID LAKE BUOY  2350   36 35   70/  8/ 10 1018.0R   2/ 5
DEVILS ISLAND    0000   37      70/ 12/ 13 1017.5R
PORT WING        0040   37      30/ 13/ 15 1016.6S
SAXON HARBOR     0000   38      40/ 15/ 17 1015.6
$$

LMZ867-665-643>646-260200-
LAKE MICHIGAN

STATION/POSITION TIME  TEMP    WIND        PRES    WAVE
                       AIR SEA DIR/SP/G            HT/PER
                 (UTC) (F)     (DEG/KT/KT) (MB)    (FT/S)
CHAMBERS ISLAND  0000   42     360/  3/  6 1013.9R
NORTHPORT PIER   0000   44      60/ 10/ 13 1013.2R
SISTER BAY       0032   46      40/  4/  9   N/A
KEWAUNEE LAKESHO 0000   43      30/ 10/ 18 1011.5F
SHEBOYGAN LAKESH 0000   41      10/ 23/ 26 1012.2S
PORT WASHINGTON  0040   43      10/  7/ 13 1012.2R
MILWAUKEE LAKESH 0000   40      10/ 16/ 22   N/A
KENOSHA   LAKESH 0000   40      10/ 21/ 25 1010.2R
$$

TC  - TEMPERATURE IN CELSIUS
VSB - VISIBILITY IN STATUTE MILES
WCI - WIND CHILL INDEX
HX  - HEAT INDEX




USA.gov is the U.S. government's official web portal to all federal, state and local government web resources and services.